GFSNIL_sfc_wetblb_129.txt.gz
Wetbulb
56.52 55.16 54.39 53.67 52.62 52.26 51.84 51.71 52.45 52.23 52.08 51.94 51.97 51.90 51.81 51.40 50.60 49.92 49.23 48.53 48.64 48.77
56.07 55.67 54.91 53.51 53.33 52.68 52.44 52.49 52.47 52.21 51.80 51.80 51.80 51.71 51.53 50.90 50.26 49.86 49.33 48.96 48.71 48.65
54.68 54.81 54.69 54.72 53.36 52.05 52.30 52.17 51.77 51.60 51.34 51.13 51.16 50.98 50.41 49.84 49.56 49.22 48.59 48.24 48.08 46.91
53.24 53.46 53.60 53.32 53.60 53.04 51.79 50.97 51.08 51.31 51.06 50.75 50.43 50.18 49.28 48.87 48.38 47.92 46.82 45.79 46.12 44.41
51.99 52.09 51.50 51.11 51.25 51.37 50.68 51.21 51.01 50.72 50.09 49.59 49.09 48.91 48.64 46.98 46.49 45.98 44.26 44.00 43.54 42.80
49.22 49.88 49.54 49.82 50.06 50.12 49.80 49.72 49.63 49.31 48.06 46.13 45.34 45.68 45.47 46.05 45.02 44.11 43.18 42.38 41.60 40.54
41.76 41.19 43.37 44.53 44.40 43.85 44.49 43.92 43.20 42.85 42.09 41.56 40.72 40.70 40.06 39.85 38.45 38.73 38.89 38.40 37.82 36.93
37.80 37.95 38.19 38.16 38.72 39.90 40.66 40.33 41.04 40.93 40.79 40.64 39.92 39.90 37.07 36.86 36.23 36.37 36.01 36.68 38.26 39.28
37.20 36.63 36.31 35.95 36.69 37.45 37.24 37.87 39.18 38.91 39.61 39.69 42.79 44.69 43.34 37.65 34.83 34.93 35.09 34.70 34.75 37.70
36.30 35.75 35.24 35.35 35.94 35.49 35.01 36.13 36.48 36.92 37.31 37.55 39.47 44.76 43.15 40.32 32.99 32.26 31.64 32.17 33.54 35.16
35.57 35.06 34.79 34.58 33.82 33.11 33.26 34.61 34.84 35.02 35.43 35.74 40.12 43.41 42.28 40.07 32.12 31.50 31.59 31.85 32.41 32.11
35.29 34.66 34.47 33.65 32.87 32.36 32.14 31.97 33.32 34.65 33.90 33.23 35.05 42.65 40.95 35.29 31.32 31.28 31.16 32.43 32.57 32.68
35.25 34.74 33.90 32.86 32.05 31.32 30.98 31.40 33.23 31.38 31.24 37.56 33.21 41.77 40.61 35.14 32.00 30.48 31.74 31.97 32.98 38.54
35.16 34.54 33.60 32.11 30.59 30.01 29.65 29.33 28.79 29.44 29.45 29.88 32.50 33.54 40.48 40.03 34.08 34.14 33.42 32.15 32.47 33.60

GFSNIL_sfc_wetblb_135.txt.gz
Wetbulb
56.37 55.62 54.79 54.46 53.49 52.65 52.50 52.70 53.52 53.01 52.31 52.09 52.66 53.39 53.89 54.33 53.82 54.18 51.94 53.32 53.44 53.92
55.59 54.88 53.59 53.90 53.51 52.56 52.64 53.33 52.81 52.39 51.91 51.93 51.77 51.66 53.28 52.67 51.51 51.89 50.53 50.01 50.44 51.54
54.77 54.72 54.60 54.50 53.08 52.65 52.68 52.37 52.04 51.81 51.61 51.46 51.40 51.22 50.88 50.32 50.15 49.76 49.54 49.52 49.50 49.17
54.93 54.84 54.35 53.51 52.80 52.53 52.59 52.40 51.87 51.78 51.54 51.21 50.80 50.79 50.50 50.14 50.05 49.77 48.74 48.47 49.15 47.72
53.18 53.95 53.06 52.40 51.83 52.41 51.91 52.06 51.67 51.41 50.99 50.66 50.68 50.95 50.67 49.94 49.55 49.44 47.51 47.19 45.81 44.46
50.83 50.77 50.83 51.18 51.55 51.88 51.06 50.92 50.83 49.80 48.36 48.11 47.82 47.29 47.12 47.19 46.31 45.42 45.15 45.57 44.79 43.19
47.89 47.56 47.24 47.27 47.10 46.96 46.66 45.38 44.43 43.89 42.98 42.46 42.26 42.80 43.13 42.61 42.03 42.53 42.25 41.96 42.55 42.76
44.08 45.13 45.01 44.51 44.77 44.65 44.30 43.75 43.37 42.73 42.57 42.50 41.69 41.05 40.54 41.02 41.12 41.43 41.55 42.05 41.36 41.51
44.17 44.50 43.50 43.27 43.03 42.85 42.49 42.81 43.08 42.93 43.36 43.73 44.24 45.60 43.78 41.43 40.32 40.33 41.26 40.92 41.31 42.36
43.00 42.13 41.70 42.01 42.18 41.84 41.58 42.44 42.28 42.51 42.98 43.03 43.75 44.98 43.80 41.06 38.71 38.41 38.94 39.45 40.13 39.72
40.93 40.13 40.34 40.65 40.38 40.40 41.22 41.08 41.40 41.78 42.32 42.47 42.69 43.83 42.77 40.23 37.84 38.05 38.00 38.20 38.51 38.66
40.01 39.27 39.26 38.96 38.90 39.08 39.60 39.58 39.86 41.13 41.30 41.04 41.39 42.26 40.88 38.05 37.51 37.12 37.08 37.76 39.10 39.03
39.47 39.06 38.62 38.24 37.95 38.04 39.31 38.54 38.53 38.39 40.08 42.00 40.80 41.46 40.34 38.00 37.69 37.02 37.11 37.64 37.99 39.67
39.07 38.72 38.39 37.60 37.41 37.02 37.94 37.18 36.58 36.76 37.49 38.16 39.77 41.41 41.34 39.89 38.39 37.79 37.15 37.35 37.90 39.30

GFSNIL_sfc_wetblb_138.txt.gz
Wetbulb
57.50 56.83 56.74 56.06 56.20 55.19 55.22 54.74 54.68 54.22 53.29 53.30 54.51 55.45 56.77 58.37 59.31 59.94 59.75 58.97 57.75 56.69
56.02 56.06 55.65 54.89 55.36 53.78 53.35 53.30 53.20 53.03 52.45 52.33 52.58 53.35 55.17 55.53 56.33 56.83 57.58 57.37 56.49 55.08
56.53 56.04 55.10 54.35 53.29 53.25 53.01 52.53 52.43 52.24 51.89 51.80 51.56 51.38 51.66 51.70 52.69 52.64 53.35 52.92 52.93 51.24
56.46 56.42 55.60 54.92 53.97 53.49 52.81 52.33 52.11 51.93 51.60 51.35 51.13 51.56 51.12 50.84 50.72 50.07 49.79 50.21 50.32 48.90
53.82 54.34 54.15 53.14 53.77 53.90 52.86 53.12 52.43 52.34 51.51 51.17 51.28 51.53 51.21 50.74 51.11 50.45 49.15 48.62 47.95 45.74
51.87 51.20 51.77 52.56 52.90 53.63 53.40 52.86 52.85 52.59 52.12 52.14 51.88 51.25 50.81 50.32 50.53 49.61 48.53 47.68 46.14 44.32
48.93 48.77 49.24 48.85 49.88 51.16 51.07 51.13 49.70 47.81 47.11 46.27 46.45 46.04 46.48 44.97 43.79 43.11 43.71 43.83 43.69 43.35
46.36 46.66 46.84 46.56 46.22 46.21 45.45 45.15 44.58 43.99 43.54 43.40 43.17 42.91 42.71 42.84 42.57 42.10 41.81 42.32 42.81 43.39
47.52 48.84 49.35 49.57 49.67 48.22 47.23 46.90 46.43 45.59 45.57 45.05 44.78 46.24 45.40 44.45 44.36 44.73 44.50 44.70 46.32 47.62
50.88 49.90 49.51 49.06 48.06 47.27 46.98 47.08 46.29 45.99 45.93 45.52 45.48 45.92 45.18 44.44 44.32 44.64 44.75 44.89 44.90 44.05
49.39 48.19 48.37 48.05 47.05 46.82 46.87 46.12 45.61 45.16 45.30 45.03 44.39 44.22 43.57 43.08 43.19 43.09 42.88 43.14 43.30 43.25
47.55 46.48 46.20 45.63 45.47 45.65 45.29 44.97 44.53 44.55 44.27 43.82 43.10 42.54 41.83 41.94 42.04 41.49 41.34 41.89 42.49 42.25
46.22 45.68 45.11 45.04 44.42 44.64 44.45 43.72 43.93 43.46 43.86 43.04 42.17 41.48 40.74 41.13 41.34 40.39 40.46 40.76 40.80 40.56
45.60 45.18 44.91 44.28 43.96 43.78 43.09 42.54 42.36 42.32 43.00 42.95 43.06 42.16 41.34 40.45 41.81 41.21 40.72 40.82 40.84 41.86

GFSNIL_sfc_wetblb_144.txt.gz
Wetbulb
58.88 57.82 57.09 56.83 56.48 56.38 55.67 54.41 54.20 53.76 53.45 53.19 53.17 54.39 56.39 57.37 58.45 58.61 58.34 56.55 55.61 52.65
56.91 56.40 56.30 55.87 55.41 54.93 55.72 55.38 54.98 54.26 53.01 52.84 52.56 52.48 53.37 54.29 55.31 55.62 56.96 55.84 53.26 51.40
55.52 55.08 54.90 54.90 54.08 53.46 53.57 54.11 54.36 53.72 52.75 52.19 51.98 51.85 51.55 51.31 52.41 51.90 50.82 52.27 50.59 50.26
53.61 53.48 53.33 53.02 53.05 52.60 52.62 52.51 52.13 52.03 51.85 51.61 51.37 51.38 50.92 50.60 50.57 50.40 50.08 49.79 49.07 48.27
53.28 53.46 52.62 51.97 52.07 52.44 51.93 52.24 51.94 51.84 51.55 51.37 51.33 51.33 50.90 50.44 50.27 49.93 49.53 49.26 48.39 47.34
52.69 52.73 52.43 52.30 52.61 52.46 51.83 51.74 51.79 51.65 51.25 51.35 51.49 51.47 51.56 51.25 50.72 50.04 49.38 48.70 47.27 46.22
51.22 51.43 51.81 51.97 51.88 51.33 51.07 49.84 48.49 48.00 47.13 47.69 48.99 49.49 50.29 49.93 49.02 47.09 46.47 46.69 45.87 44.59
49.69 48.80 48.80 47.89 47.98 48.45 46.80 46.39 45.99 45.05 44.45 43.81 43.69 43.87 42.50 42.67 42.35 41.73 41.88 42.44 42.76 43.04
47.78 47.19 45.95 45.79 45.41 45.48 45.55 45.70 45.68 45.25 45.19 44.68 46.05 48.29 47.41 44.31 42.24 41.51 41.30 41.65 42.48 44.59
48.86 47.81 46.91 46.66 46.41 46.01 44.81 43.58 42.65 42.30 42.40 42.29 43.63 48.76 48.32 47.43 42.86 42.83 43.51 43.03 43.01 44.12
48.57 46.63 46.27 45.21 43.65 42.39 41.72 41.05 40.81 41.06 40.73 40.95 44.02 47.90 48.04 47.26 40.96 40.38 40.76 41.17 40.83 40.56
46.41 45.36 44.92 43.55 42.24 41.83 40.80 39.87 39.38 39.97 38.77 37.79 38.34 45.32 45.57 41.85 37.95 37.73 37.37 38.37 39.11 38.72
45.81 44.60 43.00 41.55 40.67 40.23 39.27 38.88 39.79 38.75 37.72 41.51 36.01 43.22 43.56 40.47 37.41 34.83 35.78 36.30 36.90 43.51
43.48 42.50 41.70 40.37 39.45 38.40 38.49 38.20 37.36 37.31 36.66 36.12 36.91 38.00 43.33 44.22 37.65 36.83 36.36 36.45 36.43 38.25

GFSNIL_sfc_wetblb_147.txt.gz
Wetbulb
58.52 57.38 57.11 56.74 56.97 55.86 55.13 55.01 54.76 55.00 55.33 55.19 56.60 58.71 58.79 58.36 57.34 56.94 56.20 54.30 52.29 51.37
56.96 56.76 55.92 55.81 55.77 55.90 54.66 54.18 53.91 53.60 53.00 53.05 52.79 54.52 56.41 57.09 55.88 56.83 54.82 52.45 51.37 49.97
54.99 55.18 55.12 54.55 53.49 53.92 55.23 54.65 53.93 53.24 52.70 52.16 52.10 52.34 52.96 52.61 52.15 52.48 51.77 51.19 50.38 49.53
53.44 53.50 53.63 53.04 52.74 52.76 53.09 53.66 53.56 52.77 52.07 51.70 51.39 51.58 51.54 51.39 51.12 49.85 49.24 49.31 48.79 48.03
52.89 52.47 52.05 52.01 52.19 52.61 52.03 52.43 52.29 52.26 51.78 51.53 51.33 51.43 51.28 51.05 51.13 50.25 49.30 49.00 48.91 48.39
52.30 51.95 51.74 51.92 52.05 52.08 51.68 51.74 51.98 51.88 51.50 51.47 51.50 51.36 51.27 50.92 50.62 50.35 49.78 49.10 48.66 47.90
51.48 51.47 51.53 51.59 51.30 51.00 50.66 50.03 49.84 50.15 51.22 51.30 51.48 51.54 51.45 50.98 50.20 49.65 49.16 48.74 47.65 46.78
49.09 49.47 49.15 48.89 47.43 46.25 45.98 46.32 45.63 45.18 44.77 45.57 46.24 47.49 47.10 47.02 45.65 44.62 43.30 43.09 43.26 43.25
47.00 46.38 45.57 45.55 45.20 44.16 43.84 43.82 44.28 44.26 44.96 45.03 46.53 48.99 47.73 44.33 42.47 42.23 41.91 41.77 43.65 45.63
46.74 46.03 45.81 45.93 45.70 45.25 44.12 43.10 42.56 43.25 44.18 44.17 46.09 49.33 48.44 46.83 43.04 42.24 42.22 42.78 43.27 44.10
47.25 46.32 46.36 44.42 41.50 39.96 39.74 39.39 39.80 39.92 40.64 42.03 45.71 49.15 48.71 47.16 40.64 40.33 39.77 39.60 40.33 40.60
46.07 43.91 42.54 40.85 39.50 38.98 39.45 38.82 38.00 37.94 37.74 38.09 40.69 47.86 46.91 41.19 37.12 36.60 36.58 38.82 37.86 37.35
44.59 43.50 41.73 40.10 39.17 38.01 37.82 38.53 38.58 36.74 36.00 41.72 36.57 46.04 45.33 39.83 36.09 34.29 35.15 34.85 38.81 43.54
44.12 42.18 40.27 38.47 37.26 36.28 36.45 36.90 36.17 35.55 34.39 34.38 36.23 40.13 44.68 43.30 35.51 34.66 34.58 34.91 36.09 37.45

GFSNIL_sfc_wetblb_150.txt.gz
Wetbulb
57.52 56.47 55.38 54.71 57.48 56.72 56.27 56.37 56.31 59.12 60.52 59.66 59.31 59.15 58.08 56.58 56.07 55.76 55.08 53.44 51.86 51.46
56.33 56.74 55.76 55.58 56.10 55.75 54.97 54.95 55.53 56.87 56.44 58.33 58.59 58.46 58.01 57.11 56.80 55.67 54.68 52.56 51.57 50.60
55.58 55.55 54.88 54.36 53.91 54.32 54.52 54.07 53.93 53.79 54.60 55.35 54.76 55.14 55.54 54.64 54.45 52.79 51.65 51.44 50.01 48.84
53.75 53.89 53.75 53.20 53.13 53.96 54.50 54.06 53.26 52.85 52.67 52.40 52.63 52.90 53.06 51.82 51.66 50.14 49.29 49.13 48.62 48.31
52.57 52.58 52.35 52.23 52.63 53.13 52.75 53.37 52.91 52.51 51.86 51.81 51.90 52.36 52.29 51.73 51.01 50.01 48.65 48.89 49.01 48.88
51.82 51.76 51.67 51.64 51.96 52.22 52.30 52.54 52.70 52.49 51.85 51.62 51.60 51.41 51.71 51.86 51.44 50.75 50.46 50.34 49.98 48.98
51.10 51.30 51.34 51.37 50.46 50.18 50.84 50.95 51.51 51.83 51.72 51.73 51.71 51.60 51.46 50.99 50.30 49.79 49.34 49.15 48.87 48.49
50.40 49.60 48.03 46.88 46.72 47.10 46.93 46.53 47.67 47.76 48.54 49.81 50.47 50.74 49.62 49.20 48.59 47.64 45.98 45.30 44.97 44.39
46.91 46.34 45.99 44.97 44.89 45.09 44.98 45.20 45.56 45.21 45.79 46.65 49.20 51.83 50.32 46.75 44.63 43.73 42.74 42.28 44.37 46.33
46.62 45.81 45.60 45.44 44.80 42.86 42.41 42.22 43.57 44.88 45.76 45.68 46.24 50.42 49.23 46.64 42.21 42.27 43.08 43.14 43.62 44.58
46.58 45.63 45.73 44.37 42.27 40.42 39.25 39.31 40.09 42.77 43.29 43.49 46.60 49.69 48.77 46.88 41.25 40.04 39.60 40.82 41.09 40.20
46.64 44.69 42.67 39.93 38.31 38.15 39.08 38.13 37.82 38.87 40.13 41.25 43.18 48.98 47.68 41.21 37.41 37.09 36.91 37.77 38.26 38.06
45.35 42.03 40.02 38.76 37.95 37.30 37.25 37.35 38.06 36.63 36.82 43.66 40.71 47.16 45.95 39.30 36.67 34.17 35.38 36.69 38.32 43.36
42.80 41.27 39.77 37.67 36.87 36.15 36.11 35.31 34.52 34.88 33.83 35.09 37.79 41.09 45.02 42.97 35.06 34.37 33.80 35.32 35.70 37.45

GFSNIL_sfc_wetblb_153.txt.gz
Wetbulb
55.17 54.85 54.73 53.33 54.49 57.35 57.09 55.57 56.42 59.53 60.29 60.04 59.02 58.46 59.08 58.13 57.67 55.56 54.19 52.44 51.80 51.00
56.01 55.19 54.63 55.61 56.10 56.60 55.27 54.76 56.65 58.42 59.31 58.87 58.99 57.77 57.23 56.54 55.62 55.65 54.58 52.94 51.89 51.20
55.44 55.11 54.64 54.45 54.38 55.06 54.97 54.65 55.11 56.20 59.06 58.48 58.48 58.50 58.09 56.41 55.61 54.14 52.81 52.11 49.91 49.10
53.85 54.04 53.74 53.36 53.60 54.38 53.97 53.75 53.83 54.71 56.11 56.86 56.74 56.57 54.99 53.81 53.04 51.81 50.33 50.53 50.41 49.22
52.84 52.83 52.42 52.37 52.93 53.62 53.25 53.40 52.94 53.20 53.29 53.63 54.08 54.51 53.32 51.90 51.46 50.45 49.55 49.11 49.28 49.02
51.85 51.69 51.43 51.77 52.16 52.68 52.86 52.85 52.82 52.58 52.36 52.26 52.44 52.40 52.24 51.57 50.76 50.16 49.70 49.87 49.69 49.34
51.05 51.05 50.55 49.85 49.96 50.68 51.69 51.86 51.93 51.99 51.80 51.81 51.90 51.84 51.73 51.57 51.09 50.92 50.75 50.55 50.18 49.77
49.35 48.22 47.50 47.20 47.32 47.31 47.99 48.89 50.22 50.53 50.80 51.18 51.37 51.40 50.50 50.08 49.24 48.50 47.71 47.67 47.17 46.33
46.87 46.54 45.80 45.85 45.68 45.66 45.92 46.65 47.24 47.50 48.67 50.01 51.61 52.97 51.74 49.05 47.13 46.17 44.95 44.02 46.05 48.63
46.43 45.85 45.49 45.13 44.53 44.10 43.82 45.39 45.72 46.43 47.32 48.77 50.94 52.55 51.27 48.95 44.49 43.80 44.20 44.25 44.35 44.88
46.12 45.36 44.72 43.88 42.98 42.37 40.93 41.54 44.25 44.28 43.81 44.22 47.57 50.49 48.89 46.57 41.25 40.64 40.96 41.00 40.57 40.44
46.02 44.08 43.37 42.20 39.05 37.96 38.53 38.54 38.77 40.08 41.25 42.20 44.24 48.81 47.20 41.50 38.27 37.76 37.33 38.08 38.80 39.87
45.48 43.51 40.75 38.10 37.78 36.91 37.33 37.56 38.35 37.62 39.61 46.12 42.23 47.28 45.80 39.62 37.15 34.79 35.86 36.28 38.35 44.50
43.96 40.17 38.63 37.12 36.59 36.19 36.02 35.81 34.54 33.64 34.65 36.88 40.16 42.43 45.11 42.92 35.35 35.65 35.73 35.67 35.81 38.05